This is the latest recevied weather packets stored in our database for station/object WY1B. If no packets are shown the sender has not sent any weather packets the latest 10 day(s).
| Time | Temp. | Humidity | Pressure | Rain* | Wind** | Luminosity | Snow |
|---|---|---|---|---|---|---|---|
| 1787779512 | 49.44° C | 12% | 1002.5 hPa | 0 mm | - | 742 W/m² | - |
| 1787779211 | 48.89° C | 12% | 1002.4 hPa | 0 mm | - | 730 W/m² | - |
| 1787778911 | 48.89° C | 12% | 1002.7 hPa | 0 mm | - | 718 W/m² | - |
| 1787778607 | 48.89° C | 13% | 1002.7 hPa | 0 mm | - | 468 W/m² | - |
| 1787778302 | 48.89° C | 12% | 1002.7 hPa | 0 mm | - | 646 W/m² | - |
| 1787777997 | 48.89° C | 12% | 1002.6 hPa | 0 mm | - | 784 W/m² | - |
| 1787777692 | 48.89° C | 12% | 1002.8 hPa | 0 mm | - | 793 W/m² | - |
| 1787777389 | 48.89° C | 12% | 1002.8 hPa | 0 mm | - | 802 W/m² | - |
| 1787777088 | 48.89° C | 12% | 1002.9 hPa | 0 mm | - | 813 W/m² | - |
| 1787776787 | 48.33° C | 12% | 1003.1 hPa | 0 mm | - | 825 W/m² | - |
| 1787776486 | 48.33° C | 13% | 1003.1 hPa | 0 mm | - | 838 W/m² | - |
| 1787776183 | 47.78° C | 12% | 1003.1 hPa | 0 mm | - | 849 W/m² | - |
| 1787775878 | 48.89° C | 12% | 1003.2 hPa | 0 mm | - | 859 W/m² | - |
| 1787775573 | 48.89° C | 12% | 1003.4 hPa | 0 mm | - | 870 W/m² | - |
| 1787775272 | 48.89° C | 12% | 1003.5 hPa | 0 mm | - | 877 W/m² | - |
| 1787774972 | 48.89° C | 13% | 1003.5 hPa | 0 mm | - | 887 W/m² | - |
| 1787774671 | 47.78° C | 14% | 1003.6 hPa | 0 mm | - | 899 W/m² | - |
| 1787774371 | 48.89° C | 12% | 1003.6 hPa | 0 mm | - | 878 W/m² | - |
| 1787774066 | 48.89° C | 12% | 1003.6 hPa | 0 mm | - | 601 W/m² | - |
| 1787773764 | 47.78° C | 13% | 1003.9 hPa | 0 mm | - | 949 W/m² | - |
| 1787773459 | 47.78° C | 13% | 1003.9 hPa | 0 mm | - | 959 W/m² | - |
| 1787773154 | 47.22° C | 13% | 1003.8 hPa | 0 mm | - | 970 W/m² | - |
| 1787772850 | 46.67° C | 14% | 1004.1 hPa | 0 mm | - | 991 W/m² | - |
| 1787772549 | 46.67° C | 14% | 1004 hPa | 0 mm | - | 682 W/m² | - |
| 1787772249 | 46.11° C | 14% | 1004.1 hPa | 0 mm | - | 628 W/m² | - |
* Rain latest hour (hover to see other rain measurements)
** Current wind speed in m/s (hover to see current wind gust speed)